Location: Gleizolles
(44.4833°N, 6.7667°E)
Time: 04:14:50
(UTC+00:00)

N. Korean satellite - Pass Details

Date: 11 December 2021
Orbit: 447 x 491 km, 97.3° (Epoch: 23 January)

Event Time Altitude Azimuth Distance (km) Brightness Sun altitude
Rises 04:36:40 0° 16° (NNE) 2,459 10.2 -24.5°
Enters shadow 04:38:16 - 19° (NNE) 1,777 9.5 -24.2°
Exits shadow 04:42:21 52° 124° (ESE) 564 7.1 -23.5°
Drops below altitude 10° 04:45:23 10° 179° (S) 1,577 9.3 -23.0°
Sets 04:47:26 0° 184° (S) 2,449 10.2 -22.6°
